OCN62G EDDF-LGMK

Flight info

Callsign OCN62G
Flight time 2h 25m
Altitude 37000
Route CINDY8S/18 CINDY Z74 LAMPU DCT NOMBO Y161 MAH DCT VAVOR DCT RADIZ DCT GORPA DCT EVTON DCT SOLGU DCT AKIKA DCT MAVAR DCT BITLA UN137 AGAPU
Aircraft A320/M-SDE3FGHIRWY/LB1

Departure

Time 2026-05-04 09:49
Airport Frankfurt Main Airport (EDDF)

Arrival

Time 2026-05-04 12:14
Airport Mykonos Island National Airport (LGMK)
Time Latitude Longitude Altitude Speed Heading
2026-05-04 09:18 50.03648 8.53948 350 ft 0 kts 159°
2026-05-04 09:46 50.03438 8.53394 337 ft 21 kts 249°
2026-05-04 09:46 50.03393 8.53208 336 ft 17 kts 249°
2026-05-04 09:46 50.03351 8.53029 334 ft 15 kts 250°
2026-05-04 09:47 50.03321 8.52908 333 ft 11 kts 249°
2026-05-04 09:47 50.03299 8.52815 332 ft 7 kts 249°
2026-05-04 09:49 50.00198 8.52630 899 ft 165 kts 180°
2026-05-04 09:49 49.99053 8.52663 1655 ft 163 kts 179°
2026-05-04 09:49 49.97915 8.52704 2291 ft 166 kts 177°
2026-05-04 09:51 49.93595 8.64550 5020 ft 269 kts 122°
2026-05-04 09:51 49.92455 8.66880 5765 ft 273 kts 135°
2026-05-04 09:51 49.91106 8.68996 6659 ft 277 kts 138°
2026-05-04 09:51 49.89701 8.71074 7514 ft 280 kts 139°
2026-05-04 09:52 49.88312 8.73163 8320 ft 283 kts 138°
2026-05-04 09:52 49.86916 8.75351 9159 ft 286 kts 137°
2026-05-04 09:52 49.85534 8.77599 9991 ft 289 kts 135°
2026-05-04 09:52 49.84132 8.79926 10482 ft 305 kts 135°
2026-05-04 09:53 49.82642 8.82427 10692 ft 328 kts 135°
2026-05-04 09:53 49.81069 8.85087 11220 ft 338 kts 135°
2026-05-04 09:53 49.79470 8.87800 11922 ft 343 kts 135°
2026-05-04 09:53 49.77850 8.90548 12654 ft 347 kts 135°
2026-05-04 09:54 49.76201 8.93347 13101 ft 360 kts 135°
2026-05-04 09:54 49.74465 8.96288 13244 ft 379 kts 135°
2026-05-04 09:54 49.72663 8.99328 13372 ft 397 kts 135°
2026-05-04 09:54 49.70758 9.02534 13614 ft 409 kts 135°
2026-05-04 09:55 49.68814 9.05814 14025 ft 415 kts 134°
2026-05-04 09:55 49.66848 9.09132 14463 ft 419 kts 134°
2026-05-04 09:55 49.64892 9.12423 14921 ft 422 kts 135°
2026-05-04 09:55 49.62896 9.15777 15406 ft 425 kts 135°
2026-05-04 09:56 49.60883 9.19151 15897 ft 428 kts 135°
2026-05-04 09:56 49.58858 9.22538 16413 ft 429 kts 135°
2026-05-04 09:56 49.56829 9.25925 16900 ft 431 kts 135°
2026-05-04 09:56 49.54786 9.29332 17353 ft 433 kts 135°
2026-05-04 09:57 49.52731 9.32755 17806 ft 436 kts 136°
2026-05-04 09:57 49.50662 9.36200 18245 ft 439 kts 136°
2026-05-04 09:57 49.48603 9.39623 18627 ft 441 kts 136°
2026-05-04 09:57 49.46503 9.43103 18986 ft 444 kts 136°
2026-05-04 09:58 49.44395 9.46590 19361 ft 446 kts 136°
2026-05-04 09:58 49.42273 9.50092 19727 ft 448 kts 136°
2026-05-04 09:58 49.40141 9.53611 20075 ft 451 kts 136°
2026-05-04 10:00 49.24923 9.78620 22259 ft 467 kts 136°
2026-05-04 10:00 49.22687 9.82271 22521 ft 469 kts 136°
2026-05-04 10:02 49.06866 10.07983 24661 ft 474 kts 136°
2026-05-04 10:04 48.90146 10.31652 27269 ft 466 kts 140°
2026-05-04 10:04 48.87767 10.35010 27669 ft 465 kts 140°
2026-05-04 10:04 48.85396 10.38371 28063 ft 464 kts 140°
2026-05-04 10:04 48.83041 10.41718 28462 ft 463 kts 140°
2026-05-04 10:05 48.80734 10.45144 28844 ft 464 kts 138°
2026-05-04 10:05 48.78494 10.48671 29207 ft 464 kts 137°
2026-05-04 10:05 48.76294 10.52261 29569 ft 463 kts 136°
2026-05-04 10:05 48.74128 10.55839 29876 ft 465 kts 136°
2026-05-04 10:06 48.71936 10.59447 30183 ft 465 kts 136°
2026-05-04 10:06 48.69728 10.63043 30486 ft 465 kts 137°
2026-05-04 10:06 48.67506 10.66608 30793 ft 464 kts 137°
2026-05-04 10:08 48.54197 10.87667 32709 ft 460 kts 137°
2026-05-04 10:08 48.52029 10.91148 32976 ft 460 kts 137°
2026-05-04 10:08 48.49833 10.94672 33232 ft 461 kts 137°
2026-05-04 10:08 48.47624 10.98192 33534 ft 460 kts 138°
2026-05-04 10:09 48.45412 11.01672 33865 ft 459 kts 138°
2026-05-04 10:09 48.43191 11.05137 34153 ft 459 kts 139°
2026-05-04 10:09 48.40969 11.08588 34426 ft 458 kts 139°
2026-05-04 10:09 48.38742 11.12033 34721 ft 457 kts 139°
2026-05-04 10:10 48.37277 11.14293 34914 ft 456 kts 139°
2026-05-04 10:10 48.34343 11.18817 35276 ft 455 kts 138°
2026-05-04 10:10 48.32137 11.22224 35551 ft 454 kts 138°
2026-05-04 10:10 48.29937 11.25623 35762 ft 454 kts 138°
2026-05-04 10:11 48.28446 11.27926 35888 ft 454 kts 138°
2026-05-04 10:11 48.26391 11.31477 36091 ft 458 kts 129°
2026-05-04 10:11 48.24673 11.35518 36310 ft 461 kts 123°
2026-05-04 10:11 48.23079 11.39701 36529 ft 460 kts 123°
2026-05-04 10:12 48.21478 11.43860 36758 ft 459 kts 123°
2026-05-04 10:12 48.19875 11.47994 36969 ft 459 kts 123°
2026-05-04 10:12 48.16655 11.56265 37031 ft 465 kts 123°
2026-05-04 10:13 48.13375 11.64674 37052 ft 468 kts 123°
2026-05-04 10:13 48.10088 11.73117 37033 ft 468 kts 123°
2026-05-04 10:14 48.06802 11.81538 37045 ft 468 kts 123°
2026-05-04 10:16 47.93381 12.14782 37027 ft 465 kts 133°
2026-05-04 10:16 47.88719 12.21359 37024 ft 460 kts 143°
2026-05-04 10:17 47.83796 12.27504 37025 ft 461 kts 143°
2026-05-04 10:19 47.64166 12.51957 37032 ft 460 kts 143°
2026-05-04 10:19 47.59626 12.58683 37029 ft 463 kts 135°
2026-05-04 10:20 47.55248 12.65690 37031 ft 463 kts 135°
2026-05-04 10:20 47.50851 12.72660 37026 ft 462 kts 135°
2026-05-04 10:21 47.46461 12.79630 37023 ft 463 kts 135°
2026-05-04 10:21 47.42091 12.86565 37030 ft 463 kts 135°
2026-05-04 10:22 47.35487 12.97004 37040 ft 463 kts 135°
2026-05-04 10:23 47.31075 13.03943 37037 ft 463 kts 135°
2026-05-04 10:25 47.13444 13.31523 37063 ft 463 kts 135°
2026-05-04 10:25 47.09011 13.38403 37072 ft 463 kts 135°
2026-05-04 10:26 47.04578 13.45266 37080 ft 463 kts 135°
2026-05-04 10:26 47.00133 13.52129 37076 ft 463 kts 135°
2026-05-04 10:27 46.95716 13.58939 37080 ft 463 kts 135°
2026-05-04 10:27 46.91257 13.65803 37079 ft 464 kts 135°
2026-05-04 10:28 46.86800 13.72647 37078 ft 465 kts 135°
2026-05-04 10:28 46.82352 13.79454 37085 ft 465 kts 135°
2026-05-04 10:29 46.77879 13.86295 37087 ft 465 kts 136°
2026-05-04 10:29 46.73384 13.93131 37078 ft 466 kts 136°
2026-05-04 10:30 46.68910 13.99917 37090 ft 466 kts 135°
2026-05-04 10:30 46.64406 14.06742 37086 ft 467 kts 135°
2026-05-04 10:31 46.59913 14.13543 37091 ft 467 kts 135°
2026-05-04 10:32 46.44076 14.37309 37083 ft 469 kts 135°
2026-05-04 10:33 46.39523 14.44118 37100 ft 469 kts 135°
2026-05-04 10:33 46.34969 14.50898 37109 ft 469 kts 136°
2026-05-04 10:34 46.30429 14.57640 37113 ft 469 kts 135°
2026-05-04 10:34 46.25884 14.64389 37097 ft 471 kts 136°
2026-05-04 10:35 46.21294 14.71179 37084 ft 472 kts 135°
2026-05-04 10:35 46.16694 14.77962 37094 ft 472 kts 135°
2026-05-04 10:36 46.12107 14.84701 37100 ft 472 kts 136°
2026-05-04 10:36 46.07495 14.91452 37098 ft 472 kts 135°
2026-05-04 10:37 46.02867 14.98223 37089 ft 473 kts 135°
2026-05-04 10:37 45.98254 15.04952 37090 ft 473 kts 135°
2026-05-04 10:39 45.82075 15.28441 37095 ft 473 kts 135°
2026-05-04 10:40 45.77427 15.35146 37101 ft 473 kts 135°
2026-05-04 10:40 45.72901 15.41943 37100 ft 473 kts 133°
2026-05-04 10:41 45.68468 15.48944 37094 ft 474 kts 132°
2026-05-04 10:41 45.64055 15.55894 37101 ft 474 kts 133°
2026-05-04 10:42 45.59563 15.62820 37103 ft 474 kts 133°
2026-05-04 10:42 45.55052 15.69702 37100 ft 474 kts 133°
2026-05-04 10:43 45.50585 15.76536 37109 ft 474 kts 133°
2026-05-04 10:45 45.32540 16.04041 37104 ft 476 kts 133°
2026-05-04 10:45 45.28028 16.10875 37103 ft 476 kts 133°
2026-05-04 10:46 45.23480 16.17740 37105 ft 476 kts 133°
2026-05-04 10:46 45.18953 16.24556 37106 ft 477 kts 133°
2026-05-04 10:47 45.14386 16.31418 37099 ft 477 kts 133°
2026-05-04 10:47 45.09818 16.38256 37110 ft 477 kts 133°
2026-05-04 10:49 44.91550 16.65468 37116 ft 478 kts 133°
2026-05-04 10:50 44.86962 16.72267 37117 ft 478 kts 133°
2026-05-04 10:52 44.69182 16.97946 37122 ft 478 kts 139°
2026-05-04 10:52 44.63286 17.05009 37116 ft 479 kts 139°
2026-05-04 10:54 44.43805 17.28205 37117 ft 479 kts 139°
2026-05-04 10:56 44.23414 17.52274 37140 ft 480 kts 139°
2026-05-04 10:57 44.18295 17.58284 37129 ft 480 kts 139°
2026-05-04 10:57 44.13158 17.64289 37128 ft 481 kts 139°
2026-05-04 10:58 44.08102 17.70339 37136 ft 482 kts 137°
2026-05-04 10:58 44.03166 17.76683 37135 ft 482 kts 136°
2026-05-04 10:59 43.98295 17.83018 37136 ft 482 kts 136°
2026-05-04 10:59 43.93342 17.89328 37138 ft 483 kts 137°
2026-05-04 11:00 43.88349 17.95598 37152 ft 483 kts 137°
2026-05-04 11:02 43.68419 18.20574 37154 ft 484 kts 137°
2026-05-04 11:05 43.30726 18.67208 37157 ft 486 kts 137°
2026-05-04 11:06 43.25659 18.73415 37164 ft 488 kts 137°
2026-05-04 11:06 43.20575 18.79618 37177 ft 488 kts 137°
2026-05-04 11:10 42.84990 19.22724 37171 ft 490 kts 137°
2026-05-04 11:12 42.64524 19.47192 37188 ft 490 kts 137°
2026-05-04 11:12 42.59381 19.53305 37183 ft 490 kts 137°
2026-05-04 11:13 42.54268 19.59369 37179 ft 490 kts 137°
2026-05-04 11:13 42.49050 19.65341 37168 ft 491 kts 139°
2026-05-04 11:14 42.48147 19.66329 37168 ft 491 kts 139°
2026-05-04 11:16 42.22184 19.94252 37193 ft 496 kts 139°
2026-05-04 11:16 42.16827 20.00018 37180 ft 496 kts 139°
2026-05-04 11:17 42.11416 20.05815 37168 ft 496 kts 139°
2026-05-04 11:19 41.89756 20.28928 37156 ft 498 kts 139°
2026-05-04 11:19 41.84351 20.34668 37156 ft 498 kts 140°
2026-05-04 11:20 41.78893 20.40446 37151 ft 498 kts 140°
2026-05-04 11:20 41.73441 20.46210 37146 ft 499 kts 140°
2026-05-04 11:22 41.51653 20.69186 37156 ft 499 kts 139°
2026-05-04 11:23 41.46179 20.74947 37153 ft 500 kts 140°
2026-05-04 11:25 41.27063 20.94946 37176 ft 499 kts 139°
2026-05-04 11:25 41.21592 21.00649 37163 ft 499 kts 139°
2026-05-04 11:27 40.96943 21.26156 37170 ft 500 kts 140°
2026-05-04 11:28 40.91435 21.31821 37167 ft 500 kts 140°
2026-05-04 11:28 40.86133 21.37753 37164 ft 497 kts 130°
2026-05-04 11:29 40.81364 21.44368 37166 ft 497 kts 130°
2026-05-04 11:29 40.76611 21.50927 37166 ft 497 kts 130°
2026-05-04 11:33 40.41646 21.95140 37191 ft 498 kts 134°
2026-05-04 11:33 40.36600 22.01391 37192 ft 498 kts 134°
2026-05-04 11:34 40.31580 22.07593 37191 ft 498 kts 134°
2026-05-04 11:34 40.26528 22.13829 37217 ft 498 kts 134°
2026-05-04 11:35 40.22333 22.18992 37195 ft 498 kts 134°
2026-05-04 11:35 40.16454 22.26222 37161 ft 498 kts 134°
2026-05-04 11:36 40.12265 22.31359 37158 ft 487 kts 134°
2026-05-04 11:36 40.07371 22.37350 37146 ft 484 kts 134°
2026-05-04 11:37 40.02449 22.43375 37151 ft 483 kts 134°
2026-05-04 11:37 39.97537 22.49370 37154 ft 483 kts 135°
2026-05-04 11:38 39.92655 22.55305 37148 ft 482 kts 135°
2026-05-04 11:38 39.87738 22.61276 37145 ft 483 kts 135°
2026-05-04 11:39 39.82802 22.67263 37149 ft 484 kts 135°
2026-05-04 11:41 39.65522 22.88094 37171 ft 483 kts 135°
2026-05-04 11:41 39.60612 22.93991 37172 ft 483 kts 135°
2026-05-04 11:42 39.55671 22.99914 37168 ft 483 kts 135°
2026-05-04 11:42 39.50740 23.05807 37174 ft 483 kts 135°
2026-05-04 11:43 39.45783 23.11719 37199 ft 483 kts 135°
2026-05-04 11:43 39.40866 23.17580 37196 ft 482 kts 136°
2026-05-04 11:44 39.35927 23.23457 37179 ft 482 kts 135°
2026-05-04 11:44 39.30978 23.29335 37169 ft 482 kts 136°
2026-05-04 11:45 39.26045 23.35160 37164 ft 483 kts 136°
2026-05-04 11:45 39.21084 23.41017 37164 ft 483 kts 136°
2026-05-04 11:46 39.16125 23.46868 37165 ft 483 kts 136°
2026-05-04 11:46 39.11196 23.52670 37160 ft 482 kts 136°
2026-05-04 11:47 39.06241 23.58494 37146 ft 482 kts 136°
2026-05-04 11:47 39.01264 23.64333 37147 ft 483 kts 136°
2026-05-04 11:48 38.96319 23.70122 37154 ft 483 kts 136°
2026-05-04 11:48 38.91331 23.75942 37148 ft 484 kts 136°
2026-05-04 11:48 38.88831 23.78851 36894 ft 483 kts 136°
2026-05-04 11:49 38.86334 23.81759 36166 ft 486 kts 136°
2026-05-04 11:49 38.83839 23.84663 35304 ft 491 kts 136°
2026-05-04 11:49 38.81287 23.87635 34359 ft 497 kts 136°
2026-05-04 11:49 38.78727 23.90610 33686 ft 496 kts 136°
2026-05-04 11:50 38.76176 23.93568 33065 ft 492 kts 136°
2026-05-04 11:50 38.73640 23.96501 32429 ft 489 kts 136°
2026-05-04 11:50 38.71123 23.99407 31802 ft 485 kts 136°
2026-05-04 11:50 38.68618 24.02302 31175 ft 482 kts 136°
2026-05-04 11:51 38.66137 24.05171 30567 ft 479 kts 136°
2026-05-04 11:51 38.63703 24.07983 30000 ft 474 kts 136°
2026-05-04 11:51 38.61287 24.10772 29796 ft 458 kts 136°
2026-05-04 11:51 38.58942 24.13479 29301 ft 450 kts 136°
2026-05-04 11:52 38.56633 24.16143 28727 ft 444 kts 136°
2026-05-04 11:52 38.54348 24.18775 28145 ft 440 kts 136°
2026-05-04 11:52 38.52105 24.21348 27488 ft 438 kts 136°
2026-05-04 11:52 38.49836 24.23950 26877 ft 435 kts 136°
2026-05-04 11:53 38.47597 24.26512 26354 ft 429 kts 136°
2026-05-04 11:53 38.45384 24.29041 25853 ft 423 kts 136°
2026-05-04 11:53 38.43196 24.31533 25342 ft 418 kts 138°
2026-05-04 11:53 38.40857 24.33699 24869 ft 414 kts 147°
2026-05-04 11:55 38.24326 24.46175 21445 ft 378 kts 148°
2026-05-04 11:55 38.22073 24.47875 20995 ft 374 kts 147°
2026-05-04 11:56 38.19839 24.49559 20544 ft 371 kts 148°
2026-05-04 11:56 38.17614 24.51234 20089 ft 369 kts 147°
2026-05-04 11:56 38.15412 24.52886 19638 ft 366 kts 147°
2026-05-04 11:56 38.13243 24.54513 19198 ft 365 kts 147°
2026-05-04 11:57 38.11052 24.56157 18748 ft 364 kts 148°
2026-05-04 11:57 38.08872 24.57794 18283 ft 363 kts 148°
2026-05-04 11:57 38.06699 24.59427 17819 ft 361 kts 148°
2026-05-04 11:57 38.04542 24.61043 17380 ft 358 kts 148°
2026-05-04 11:58 38.02425 24.62627 16956 ft 356 kts 148°
2026-05-04 11:58 38.00300 24.64211 16521 ft 353 kts 148°
2026-05-04 11:58 37.98184 24.65789 16103 ft 351 kts 148°
2026-05-04 11:58 37.96077 24.67362 15684 ft 350 kts 148°
2026-05-04 11:59 37.93974 24.68932 15276 ft 348 kts 148°
2026-05-04 11:59 37.91888 24.70487 14865 ft 347 kts 148°
2026-05-04 11:59 37.89827 24.72022 14454 ft 347 kts 147°
2026-05-04 11:59 37.87747 24.73571 14038 ft 346 kts 147°
2026-05-04 12:00 37.85669 24.75120 13594 ft 346 kts 147°
2026-05-04 12:00 37.83601 24.76662 13178 ft 343 kts 147°
2026-05-04 12:00 37.81550 24.78186 12760 ft 341 kts 147°
2026-05-04 12:00 37.79506 24.79702 12349 ft 339 kts 148°
2026-05-04 12:01 37.77474 24.81207 11922 ft 337 kts 148°
2026-05-04 12:01 37.75454 24.82705 11521 ft 336 kts 148°
2026-05-04 12:02 37.63629 24.91471 10027 ft 325 kts 148°
2026-05-04 12:03 37.61707 24.92889 9855 ft 314 kts 148°
2026-05-04 12:03 37.59843 24.94260 9729 ft 308 kts 148°
2026-05-04 12:03 37.58016 24.95603 9592 ft 306 kts 148°
2026-05-04 12:03 37.56176 24.96957 9462 ft 306 kts 148°
2026-05-04 12:04 37.54341 24.98309 9326 ft 305 kts 148°
2026-05-04 12:04 37.52505 24.99662 9199 ft 304 kts 149°
2026-05-04 12:04 37.50676 25.01011 9077 ft 304 kts 149°
2026-05-04 12:04 37.48848 25.02358 8945 ft 304 kts 148°
2026-05-04 12:05 37.47151 25.03885 8817 ft 302 kts 136°
2026-05-04 12:05 37.45668 25.05754 8681 ft 301 kts 132°
2026-05-04 12:05 37.44201 25.07641 8554 ft 301 kts 132°
2026-05-04 12:05 37.42729 25.09522 8423 ft 301 kts 133°
2026-05-04 12:06 37.41260 25.11393 8290 ft 300 kts 133°
2026-05-04 12:06 37.39789 25.13267 8161 ft 300 kts 133°
2026-05-04 12:06 37.38323 25.15133 7961 ft 300 kts 133°
2026-05-04 12:06 37.36856 25.16997 7569 ft 298 kts 133°
2026-05-04 12:07 37.35398 25.18846 7145 ft 298 kts 133°
2026-05-04 12:07 37.33939 25.20693 6714 ft 298 kts 133°
2026-05-04 12:07 37.32478 25.22542 6265 ft 298 kts 133°
2026-05-04 12:07 37.31062 25.24340 6102 ft 286 kts 133°
2026-05-04 12:08 37.29695 25.26073 5838 ft 272 kts 133°
2026-05-04 12:08 37.28374 25.27751 5275 ft 269 kts 133°
2026-05-04 12:08 37.27116 25.29400 5064 ft 251 kts 126°
2026-05-04 12:08 37.26275 25.31255 4958 ft 242 kts 106°
2026-05-04 12:09 37.25937 25.33291 4706 ft 239 kts 88°
2026-05-04 12:09 37.26118 25.35381 4047 ft 242 kts 68°
2026-05-04 12:09 37.26673 25.37341 3501 ft 240 kts 65°
2026-05-04 12:09 37.27277 25.39218 3403 ft 221 kts 52°
2026-05-04 12:10 37.28326 25.40454 3348 ft 198 kts 21°
2026-05-04 12:10 37.29620 25.40818 3125 ft 189 kts 354°
2026-05-04 12:10 37.30882 25.40416 2860 ft 188 kts 340°
2026-05-04 12:10 37.32099 25.39876 2594 ft 187 kts 340°
2026-05-04 12:11 37.33324 25.39334 2354 ft 186 kts 340°
2026-05-04 12:11 37.34521 25.38808 2105 ft 177 kts 340°
2026-05-04 12:11 37.35632 25.38316 1877 ft 162 kts 340°
2026-05-04 12:11 37.36657 25.37862 1656 ft 151 kts 340°
2026-05-04 12:12 37.37607 25.37440 1472 ft 139 kts 340°
2026-05-04 12:12 37.38500 25.37045 1289 ft 133 kts 340°
2026-05-04 12:12 37.39363 25.36663 1094 ft 134 kts 340°
2026-05-04 12:12 37.40261 25.36266 977 ft 137 kts 340°
2026-05-04 12:13 37.41168 25.35858 795 ft 141 kts 339°
2026-05-04 12:14 37.44299 25.34472 404 ft 2 kts 137°
2026-05-04 12:15 37.44246 25.34496 402 ft 10 kts 158°
2026-05-04 12:15 37.44190 25.34523 405 ft 7 kts 160°
2026-05-04 12:15 37.44147 25.34542 408 ft 7 kts 161°
2026-05-04 12:15 37.44072 25.34574 407 ft 14 kts 161°
2026-05-04 12:16 37.43988 25.34611 407 ft 11 kts 160°
2026-05-04 12:16 37.43914 25.34645 412 ft 16 kts 160°
2026-05-04 12:16 37.43780 25.34704 411 ft 20 kts 161°
2026-05-04 12:16 37.43674 25.34711 410 ft 10 kts 217°
2026-05-04 12:17 37.43614 25.34670 405 ft 8 kts 199°
2026-05-04 12:17 37.43589 25.34674 408 ft 5 kts 160°
2026-05-04 12:17 37.43555 25.34676 406 ft 4 kts 222°
2026-05-04 12:17 37.43547 25.34644 407 ft 3 kts 251°
2026-05-04 12:18 37.43543 25.34626 407 ft 1 kts 251°
2026-05-04 12:18 37.43542 25.34624 407 ft 0 kts 251°